Location: Dreilärchen
(47.9312°N, 8.6113°E)
Time: 19:48:25
(UTC+00:00)

Cosmos 2251 Rocket - Pass Details

Date: 26 May 2022
Orbit: 764 x 791 km, 74.0° (Epoch: 02 July)

Event Time Altitude Azimuth Distance (km) Brightness Sun altitude
Rises 01:56:48 0° 337° (NNW) 3,248 7.2 -12.8°
Reaches altitude 10° 01:59:11 10° 338° (NNW) 2,320 6.4 -12.6°
Maximum altitude 02:04:28 87° 66° (ENE) 781 3.6 -12.0°
Drops below altitude 10° 02:09:45 10° 158° (SSE) 2,320 5.7 -11.5°
Sets 02:12:08 0° 158° (SSE) 3,248 6.5 -11.2°
